Location: Avully
(45.9633°N, 6.0228°E)
Time: 19:44:08
(UTC+00:00)

Cosmos 2181 Rocket - Pass Details

Date: 23 May 2024
Orbit: 951 x 1014 km, 82.9° (Epoch: 14 June)

Event Time Altitude Azimuth Distance (km) Brightness Sun altitude
Rises 01:49:20 0° 353° (N) 3,742 7.9 -16.5°
Reaches altitude 10° 01:51:55 10° 355° (N) 2,781 7.1 -16.3°
Maximum altitude 01:58:17 70° 80° (E) 1,048 4.3 -15.7°
Drops below altitude 10° 02:04:31 10° 164° (SSE) 2,719 6.0 -15.0°
Enters shadow 02:05:55 - 165° (SSE) 3,244 6.4 -14.9°
